Regional Weather Roundup
Issued by NWS Charleston, SC

Current Version | Previous Version | Graphics & Text | Print | Product List | Glossary On
Versions: 1 2 3 4 5 6 7 8 9 10 11 12 13 14 15 16 17 18 19 20 21 22 23 24 25 26 27 28 29 30 31 32 33 34 35 36 37 38 39 40 41 42 43 44 45 46 47 48 49 50
000 ASUS42 KCHS 260027 RWRCHS REGIONAL WEATHER ROUNDUP NATIONAL WEATHER SERVICE CHARLESTON SC 800 PM EDT TUE APR 25 2017 NOTE: "FAIR" INDICATES FEW OR NO CLOUDS BELOW 12,000 FEET WITH NO SIGNIFICANT WEATHER AND/OR OBSTRUCTIONS TO VISIBILITY. NOT ALL STATIONS ARE QUALITY CONTROLLED. USE DATA WITH CAUTION... ESPECIALLY DEWPOINT OBSERVATIONS. SCZ027-030-031-034>040-042>050-260100- ...SOUTHEAST SOUTH CAROLINA... CITY SKY/WX TMP DP RH WIND PRES REMARKS N CHARLESTON MOCLDY 72 60 66 W5 29.72R 6HR MIN TEMP: 70; 6HR MAX TEMP: 76; WATERFRONT PRK N/A 74 63 68 VRB2 29.70R JOHNS ISLAND CLOUDY 70 64 83 SW7 29.73R PINOPOLIS N/A 72 63 73 N9 29.64R MONCKS CORNER FAIR 64 61 88 CALM 29.73R SUMMERVILLE FAIR 68 63 83 CALM 29.74R BEAUFORT MCAS CLOUDY 75 62 64 W3 29.72R 6HR MIN TEMP: 73; 6HR MAX TEMP: 79; BEAUFORT ARPT CLOUDY 72 64 78 S8 29.72S HILTON HEAD IS PTCLDY 72 66 83 CALM 29.74R WALTERBORO PTCLDY 70 63 78 CALM 29.74R ALLENDALE FAIR 70 63 78 CALM 29.72R ...SOUTHERN MIDLANDS AND PEE DEE... CITY SKY/WX TMP DP RH WIND PRES REMARKS GEORGETOWN CLOUDY 64 61 88 NW3 29.75R KINGSTREE CLOUDY 64 59 82 CALM 29.74R ORANGEBURG CLEAR 71 59 65 CALM 29.73R 6HR MIN TEMP: 69; 6HR MAX TEMP: 74; BARNWELL FAIR 70 64 83 CALM 29.73R AIKEN FAIR 64 59 82 CALM 29.76R MANNING FAIR 63 59 88 CALM 29.73R COLUMBIA PTCLDY 71 60 68 S3 29.71R 6HR MIN TEMP: 71; 6HR MAX TEMP: 75; SUMTER CLEAR 67 58 74 CALM 29.71R 6HR MIN TEMP: 67; 6HR MAX TEMP: 69; FLORENCE CLOUDY 64 60 87 W6 29.73R 6HR MIN TEMP: 62; 6HR MAX TEMP: 66; MYRTLE BEACH NOT AVBL N MYRTLE BEACH CLOUDY 64 59 83 W9 29.71R 6HR MIN TEMP: 64; 6HR MAX TEMP: 68; $$ GAZ063-065-086>088-099>101-113>116-118-119-134>141-150-260100- ...SOUTHEAST GEORGIA... CITY SKY/WX TMP DP RH WIND PRES REMARKS SAVANNAH ARPT MOCLDY 77 58 51 SW3 29.72R 6HR MIN TEMP: 77; 6HR MAX TEMP: 82; HUNTER AAF CLOUDY 76 63 65 W3 29.70R 6HR MIN TEMP: 76; 6HR MAX TEMP: 81; FORT STEWART CLEAR 77 57 50 W5 29.71R 6HR MIN TEMP: 77; 6HR MAX TEMP: 82; STATESBORO CLOUDY 74 62 65 CALM 29.73R SYLVANIA PTCLDY N/A N/A N/A CALM 29.73S CLAXTON FAIR 71 67 88 CALM 29.73R ...CSRA...CENTRAL AND FAR SOUTHEAST GEORGIA... CITY SKY/WX TMP DP RH WIND PRES REMARKS THOMSON CLEAR 68 63 84 CALM 29.77S AUGUSTA-BUSH CLEAR 75 59 57 CALM 29.71R 6HR MIN TEMP: 75; 6HR MAX TEMP: 81; AUGUSTA-DANIEL CLEAR 75 57 53 CALM 29.73R SWAINSBORO FAIR 72 61 68 CALM 29.73S VIDALIA CLEAR 77 59 53 SW3 29.73R EASTMAN FAIR 75 46 36 CALM 29.76R HAZLEHURST FAIR 75 60 60 CALM 29.73S ALMA CLEAR 77 57 50 W3 29.73R 6HR MIN TEMP: 77; 6HR MAX TEMP: 83; WAYCROSS CLEAR 76 60 57 W6 29.74R JESUP FAIR 75 55 50 CALM 29.74R BAXLEY FAIR 75 63 64 CALM 29.73S BRUNSWICK CLEAR 73 61 64 CALM 29.74R SAINT SIMONS CLEAR 78 57 48 W6 29.72R 6HR MIN TEMP: 77; 6HR MAX TEMP: 83; $$ SCZ027-028-034-036>038-045-046-048>050-GAZ119-141-260100- ...LAKE AND SUPPLEMENTAL COASTAL OBSERVATIONS... STATION/POSITION TIME TEMP WIND PRES WAVE SWELL AIR SEA DIR/SP/G HT/PER HT/PER/DIR (UTC) (F) (DEG/KT/KT) (MB) (FT/S) (FT/S/D) WINYAH BAY 2345 66 330/ 3 1006.0R LAKE MURRAY 0020 67 CALM 1006.1 ACE BASIN NERRS 2330 72 CALM 1006.0S FORT PULASKI 0000 73 73 CALM / 2 1006.9 SAPELO ISLAND 0000 78 270/ 4 1007.0 $$ ANZ835-935-AMZ111-154-330-350-352-354-370-450-454-472-260100- ...C-MAN AND BUOY OBSERVATIONS... STATION/POSITION TIME TEMP WIND PRES WAVE SWELL AIR SEA DIR/SP/G HT/PER HT/PER/DIR (UTC) (F) (DEG/KT/KT) (MB) (FT/S) (FT/S/D) BUOY 41004 0010 70 73 230/ 14/ 17 1006.5 BUOY 41008 2350 72 71 170/ 12/ 14 1006.4R 3/11 3/ 90/11 FOLLY BEACH CMAN 0000 70 220/ 12/ 15 1007.2R CAPERS NEARSHORE 0008 73 71 230/ 14/ 17 1006.1R FRIPP NEARSHORE 0008 71 72 210/ 10/ 12 1006.4R STATION/POSITION TIME TEMP WIND PRES WAVE SWELL AIR SEA DIR/SP/G HT/PER HT/PER/DIR (UTC) (F) (DEG/KT/KT) (MB) (FT/S) (FT/S/D) 5E ST. MARYS GA 0000 73 N/A 2/11 2/ 90/11 FRYING PAN BUOY 0010 69 75 270/ 16/ 19 1005.6 BUOY 41025 2350 72 78 220/ 16/ 19 1003.4S 8/10 7/150/10 CAPE LOOKOUT NC 0000 68 240/ 13/ 18 1003.8R BUOY 41002 2350 73 75 230/ 19/ 23 1007.4R 8/ 8 BUOY 41010 0010 72 78 240/ 8/ 12 1009.9 ST AUGUSTINE FL 0000 73 74 160/ 17/ 19 1008.6R $$

USA.gov is the U.S. government's official web portal to all federal, state and local government web resources and services.